Year,Month,Day,Hour,Minute,Value (Times are PST for temperature in C)
2017,06,26,10,10,20.20
2017,06,26,10,11,20.30
2017,06,26,10,12,20.30
2017,06,26,10,13,20.20
2017,06,26,10,14,20.30
2017,06,26,10,15,20.30
2017,06,26,10,16,20.40
2017,06,26,10,17,20.50
2017,06,26,10,18,20.50
2017,06,26,10,19,20.70
2017,06,26,10,20,20.90
2017,06,26,10,21,21.00
2017,06,26,10,22,21.00
2017,06,26,10,23,21.00
2017,06,26,10,24,21.00
2017,06,26,10,25,21.00
2017,06,26,10,26,20.90
2017,06,26,10,27,20.80
2017,06,26,10,28,20.70
2017,06,26,10,29,20.70
2017,06,26,10,30,20.70
2017,06,26,10,31,20.70
2017,06,26,10,32,20.70
2017,06,26,10,33,20.70
2017,06,26,10,34,20.70
2017,06,26,10,35,20.60
2017,06,26,10,36,20.50
2017,06,26,10,37,20.40
2017,06,26,10,38,20.20
2017,06,26,10,39,20.20
2017,06,26,10,40,20.20
2017,06,26,10,41,20.30
2017,06,26,10,42,20.40
2017,06,26,10,43,20.60
2017,06,26,10,44,20.70
2017,06,26,10,45,20.80
2017,06,26,10,46,21.00
2017,06,26,10,47,21.10
2017,06,26,10,48,21.20
2017,06,26,10,49,21.20
2017,06,26,10,50,21.20
2017,06,26,10,51,21.20
2017,06,26,10,52,21.10
2017,06,26,10,53,21.00
2017,06,26,10,54,20.90
2017,06,26,10,55,20.90
2017,06,26,10,56,20.90
2017,06,26,10,57,20.80
2017,06,26,10,58,20.70
2017,06,26,10,59,20.70
2017,06,26,11,00,20.80
2017,06,26,11,01,20.90
2017,06,26,11,02,20.90
2017,06,26,11,03,20.80
2017,06,26,11,04,20.80
2017,06,26,11,05,20.90
2017,06,26,11,06,21.00
2017,06,26,11,07,21.00
2017,06,26,11,08,21.00
2017,06,26,11,09,21.00
2017,06,26,11,10,21.00
2017,06,26,11,11,21.10
2017,06,26,11,12,21.10
2017,06,26,11,13,21.20
2017,06,26,11,14,21.30
2017,06,26,11,15,21.40
2017,06,26,11,16,21.30
2017,06,26,11,17,21.30
2017,06,26,11,18,21.10
2017,06,26,11,19,20.80
2017,06,26,11,20,20.40
2017,06,26,11,21,20.10
2017,06,26,11,22,19.90
2017,06,26,11,23,19.70
2017,06,26,11,24,19.60
2017,06,26,11,25,19.50
2017,06,26,11,26,19.40
2017,06,26,11,27,19.30
2017,06,26,11,28,19.20
2017,06,26,11,29,19.10
2017,06,26,11,30,19.10
2017,06,26,11,31,19.20
2017,06,26,11,32,19.20
2017,06,26,11,33,19.20
2017,06,26,11,34,19.20
2017,06,26,11,35,19.30
2017,06,26,11,36,19.40
2017,06,26,11,37,19.50
2017,06,26,11,38,19.60
2017,06,26,11,39,19.70
2017,06,26,11,40,19.80
2017,06,26,11,41,19.90
2017,06,26,11,42,20.00
2017,06,26,11,43,20.10
2017,06,26,11,44,20.00
2017,06,26,11,45,19.90
2017,06,26,11,46,19.80
2017,06,26,11,47,19.60
2017,06,26,11,48,19.50
2017,06,26,11,49,19.30
2017,06,26,11,50,19.10
2017,06,26,11,51,19.10
2017,06,26,11,52,19.10
2017,06,26,11,53,19.10
2017,06,26,11,54,19.10
2017,06,26,11,55,19.10
2017,06,26,11,56,19.20
2017,06,26,11,57,19.30
2017,06,26,11,58,19.40
2017,06,26,11,59,19.40
2017,06,26,12,00,19.50
2017,06,26,12,01,19.50
2017,06,26,12,02,19.60
2017,06,26,12,03,19.60
2017,06,26,12,04,19.60
2017,06,26,12,05,19.70
2017,06,26,12,06,19.90
2017,06,26,12,07,19.90
2017,06,26,12,08,19.90
2017,06,26,12,09,19.80
2017,06,26,12,10,19.50
2017,06,26,12,11,19.30
2017,06,26,12,12,19.20
2017,06,26,12,13,19.00
2017,06,26,12,14,18.90
2017,06,26,12,15,18.90
2017,06,26,12,16,18.70
2017,06,26,12,17,18.60
2017,06,26,12,18,18.50
2017,06,26,12,19,18.50
2017,06,26,12,20,18.40
2017,06,26,12,21,18.30
2017,06,26,12,22,18.20
2017,06,26,12,23,18.20
2017,06,26,12,24,18.10
2017,06,26,12,25,18.10
2017,06,26,12,26,18.10
2017,06,26,12,27,18.20
2017,06,26,12,28,18.20
2017,06,26,12,29,18.20
2017,06,26,12,30,18.40
2017,06,26,12,31,18.40
2017,06,26,12,32,18.40
2017,06,26,12,33,18.60
2017,06,26,12,34,18.70
2017,06,26,12,35,18.90
2017,06,26,12,36,18.90
2017,06,26,12,37,19.00
2017,06,26,12,38,19.10
2017,06,26,12,39,19.10
2017,06,26,12,40,19.10
2017,06,26,12,41,18.90
2017,06,26,12,42,18.80
2017,06,26,12,43,18.60
2017,06,26,12,44,18.50
2017,06,26,12,45,18.50
2017,06,26,12,46,18.50
2017,06,26,12,47,18.50
2017,06,26,12,48,18.40
2017,06,26,12,49,18.40
2017,06,26,12,50,18.60
2017,06,26,12,51,18.60
2017,06,26,12,52,18.60
2017,06,26,12,53,18.40
2017,06,26,12,54,18.30
2017,06,26,12,55,18.30
2017,06,26,12,56,18.40
2017,06,26,12,57,18.50
2017,06,26,12,58,18.60
2017,06,26,12,59,18.80
2017,06,26,13,00,19.00
2017,06,26,13,03,19.10
2017,06,26,13,04,18.90
2017,06,26,13,05,18.80
2017,06,26,13,06,18.80
2017,06,26,13,07,18.80
2017,06,26,13,08,18.70
2017,06,26,13,09,18.70
2017,06,26,13,10,18.70
2017,06,26,13,11,18.60
2017,06,26,13,12,18.60
2017,06,26,13,13,18.70
2017,06,26,13,14,18.70
2017,06,26,13,15,18.80
2017,06,26,13,16,19.00
2017,06,26,13,17,19.10
2017,06,26,13,18,19.20
2017,06,26,13,19,19.40
2017,06,26,13,20,19.40
2017,06,26,13,21,19.50
2017,06,26,13,22,19.60
2017,06,26,13,23,19.60
2017,06,26,13,24,19.80
2017,06,26,13,25,19.90
2017,06,26,13,26,20.00
2017,06,26,13,27,20.10
2017,06,26,13,28,20.10
2017,06,26,13,29,20.10
2017,06,26,13,30,20.20
2017,06,26,13,31,20.30
2017,06,26,13,32,20.40
2017,06,26,13,33,20.40
2017,06,26,13,34,20.50
2017,06,26,13,35,20.60
2017,06,26,13,36,20.60
2017,06,26,13,37,20.60
2017,06,26,13,38,20.60
2017,06,26,13,39,20.40
2017,06,26,13,40,20.30
2017,06,26,13,41,20.30
2017,06,26,13,42,20.30
2017,06,26,13,43,20.20
2017,06,26,13,44,20.20
2017,06,26,13,45,20.20
2017,06,26,13,46,20.20
2017,06,26,13,47,20.20
2017,06,26,13,48,20.20
2017,06,26,13,49,20.40
2017,06,26,13,50,20.50
2017,06,26,13,51,20.60
2017,06,26,13,52,20.70
2017,06,26,13,53,20.80
2017,06,26,13,54,20.80
2017,06,26,13,55,20.70
2017,06,26,13,56,20.70
2017,06,26,13,57,20.70
2017,06,26,13,58,20.70
2017,06,26,13,59,20.70
2017,06,26,14,00,20.80
2017,06,26,14,01,21.00
2017,06,26,14,02,21.10
2017,06,26,14,03,21.30
2017,06,26,14,04,21.50
2017,06,26,14,05,21.60
2017,06,26,14,06,21.70
2017,06,26,14,07,21.90
2017,06,26,14,08,21.90
2017,06,26,14,09,21.90
2017,06,26,14,10,21.90
2017,06,26,14,11,21.80
2017,06,26,14,12,21.80
2017,06,26,14,13,21.80
2017,06,26,14,14,21.90
2017,06,26,14,15,22.00
2017,06,26,14,16,22.00
2017,06,26,14,17,22.10
2017,06,26,14,18,22.10
2017,06,26,14,19,22.20
2017,06,26,14,20,22.30
2017,06,26,14,21,22.40
2017,06,26,14,22,22.40
2017,06,26,14,23,22.40
2017,06,26,14,24,22.40
2017,06,26,14,25,22.40
2017,06,26,14,26,22.40
2017,06,26,14,27,22.50
2017,06,26,14,28,22.70
2017,06,26,14,29,22.80
2017,06,26,14,30,23.00
2017,06,26,14,31,23.20
2017,06,26,14,32,23.30
2017,06,26,14,33,23.40
2017,06,26,14,34,23.70
2017,06,26,14,35,24.00
2017,06,26,14,36,24.30
2017,06,26,14,37,24.40
2017,06,26,14,38,24.70
2017,06,26,14,39,24.90
2017,06,26,14,40,25.00
2017,06,26,14,41,25.10
2017,06,26,14,42,25.10
2017,06,26,14,43,25.30
2017,06,26,14,44,25.40
2017,06,26,14,45,25.50
2017,06,26,14,46,25.60
2017,06,26,14,47,25.60
2017,06,26,14,48,25.60
2017,06,26,14,49,25.70
2017,06,26,14,50,25.80
2017,06,26,14,51,25.90
2017,06,26,14,52,25.90
2017,06,26,14,53,25.90
2017,06,26,14,54,26.00
2017,06,26,14,55,25.90
2017,06,26,14,56,26.00
2017,06,26,14,57,25.90
2017,06,26,14,58,25.90
2017,06,26,14,59,26.00
2017,06,26,15,00,26.00
2017,06,26,15,01,26.00
2017,06,26,15,02,26.00
2017,06,26,15,03,25.90
2017,06,26,15,04,25.80
2017,06,26,15,05,25.80
2017,06,26,15,06,25.80
2017,06,26,15,07,25.90
2017,06,26,15,08,25.90
2017,06,26,15,09,25.90
2017,06,26,15,10,25.90
2017,06,26,15,11,25.80
2017,06,26,15,12,25.70
2017,06,26,15,13,25.70
2017,06,26,15,14,25.80
2017,06,26,15,15,25.80
2017,06,26,15,16,25.60
2017,06,26,15,17,25.50
2017,06,26,15,18,25.40
2017,06,26,15,19,25.40
2017,06,26,15,20,25.30
2017,06,26,15,21,25.20
2017,06,26,15,22,25.20
2017,06,26,15,23,25.20
2017,06,26,15,24,25.20
2017,06,26,15,25,25.20
2017,06,26,15,26,25.20
2017,06,26,15,27,25.30
2017,06,26,15,28,25.30
2017,06,26,15,29,25.30
2017,06,26,15,30,25.40
2017,06,26,15,31,25.50
2017,06,26,15,32,25.50
2017,06,26,15,33,25.50
2017,06,26,15,34,25.50
2017,06,26,15,35,25.40
2017,06,26,15,36,25.30
2017,06,26,15,37,25.20
2017,06,26,15,38,25.20
2017,06,26,15,39,25.20
2017,06,26,15,40,25.20
2017,06,26,15,41,25.10
2017,06,26,15,42,25.20
2017,06,26,15,43,25.30
2017,06,26,15,44,25.30
2017,06,26,15,45,25.20
2017,06,26,15,46,25.10
2017,06,26,15,47,25.00
2017,06,26,15,48,25.10
2017,06,26,15,49,25.30
2017,06,26,15,50,25.30
2017,06,26,15,51,25.20
2017,06,26,15,52,25.20
2017,06,26,15,53,25.30
2017,06,26,15,54,25.30
2017,06,26,15,55,25.30
2017,06,26,15,56,25.30
2017,06,26,15,57,25.20
2017,06,26,15,58,25.10
2017,06,26,15,59,25.10
2017,06,26,16,00,25.10
2017,06,26,16,01,25.00
2017,06,26,16,02,25.00
2017,06,26,16,03,25.00
2017,06,26,16,04,25.00
2017,06,26,16,05,25.00
2017,06,26,16,06,24.90
2017,06,26,16,07,24.80
2017,06,26,16,08,24.80
2017,06,26,16,09,24.80
2017,06,26,16,10,24.90
2017,06,26,16,11,25.00
2017,06,26,16,12,25.20
2017,06,26,16,13,25.20
2017,06,26,16,14,25.30
2017,06,26,16,15,25.30
2017,06,26,16,16,25.30
2017,06,26,16,17,25.10
2017,06,26,16,18,25.00
2017,06,26,16,19,24.80
2017,06,26,16,20,24.70
2017,06,26,16,21,24.50
2017,06,26,16,22,24.40
2017,06,26,16,23,24.30
2017,06,26,16,24,24.40
2017,06,26,16,25,24.40
2017,06,26,16,26,24.30
2017,06,26,16,27,24.30
2017,06,26,16,28,24.30
2017,06,26,16,29,24.30
2017,06,26,16,30,24.30
2017,06,26,16,31,24.30
2017,06,26,16,32,24.40
2017,06,26,16,33,24.30
2017,06,26,16,34,24.30
2017,06,26,16,35,24.30
2017,06,26,16,36,24.30
2017,06,26,16,37,24.30
2017,06,26,16,38,24.20
2017,06,26,16,39,24.10
2017,06,26,16,40,24.10
2017,06,26,16,41,24.00
2017,06,26,16,42,23.90
2017,06,26,16,43,23.80
2017,06,26,16,44,23.70
2017,06,26,16,45,23.70
2017,06,26,16,46,23.70
2017,06,26,16,47,23.70
2017,06,26,16,48,23.70
2017,06,26,16,49,23.80
2017,06,26,16,50,23.80
2017,06,26,16,51,23.80
2017,06,26,16,52,23.70
2017,06,26,16,53,23.70
2017,06,26,16,54,23.70
2017,06,26,16,55,23.70
2017,06,26,16,56,23.60
2017,06,26,16,57,23.50
2017,06,26,16,58,23.40
2017,06,26,16,59,23.30
2017,06,26,17,00,23.40
2017,06,26,17,01,23.60
2017,06,26,17,02,23.60
2017,06,26,17,03,23.60
2017,06,26,17,04,23.70
2017,06,26,17,05,23.70
2017,06,26,17,06,23.70
2017,06,26,17,07,23.70
2017,06,26,17,08,23.70
2017,06,26,17,09,23.80
2017,06,26,17,10,23.80
2017,06,26,17,11,23.90
2017,06,26,17,12,23.80
2017,06,26,17,13,23.80
2017,06,26,17,14,23.80
2017,06,26,17,15,23.90
2017,06,26,17,16,23.90
2017,06,26,17,17,23.90
2017,06,26,17,18,23.90
2017,06,26,17,19,23.90
2017,06,26,17,20,23.90
2017,06,26,17,21,23.80
2017,06,26,17,22,23.70
2017,06,26,17,23,23.70
2017,06,26,17,24,23.70
2017,06,26,17,25,23.70
2017,06,26,17,26,23.70
2017,06,26,17,27,23.70
2017,06,26,17,28,23.70
2017,06,26,17,29,23.60
2017,06,26,17,30,23.50
2017,06,26,17,31,23.30
2017,06,26,17,32,23.20
2017,06,26,17,33,23.20
2017,06,26,17,34,23.10
2017,06,26,17,35,22.90
2017,06,26,17,36,22.90
2017,06,26,17,37,22.90
2017,06,26,17,38,22.90
2017,06,26,17,39,22.90
2017,06,26,17,40,22.80
2017,06,26,17,41,22.80
2017,06,26,17,42,22.80
2017,06,26,17,43,22.70
2017,06,26,17,44,22.70
2017,06,26,17,45,22.60
2017,06,26,17,46,22.60
2017,06,26,17,47,22.40
2017,06,26,17,48,22.30
2017,06,26,17,49,22.30
2017,06,26,17,50,22.30
2017,06,26,17,51,22.30
2017,06,26,17,52,22.20
2017,06,26,17,53,22.20
2017,06,26,17,54,22.10
2017,06,26,17,55,22.10
2017,06,26,17,56,22.00
2017,06,26,17,57,22.00
2017,06,26,17,58,22.00
2017,06,26,17,59,22.00
2017,06,26,18,00,22.00
2017,06,26,18,01,22.00
2017,06,26,18,02,22.10
2017,06,26,18,03,22.00
2017,06,26,18,04,22.00
2017,06,26,18,05,22.10
2017,06,26,18,06,22.00
2017,06,26,18,07,21.90
2017,06,26,18,08,21.90
2017,06,26,18,09,21.80
2017,06,26,18,10,21.70
2017,06,26,18,11,21.60
2017,06,26,18,12,21.50
2017,06,26,18,13,21.30
2017,06,26,18,14,21.30
2017,06,26,18,15,21.30
2017,06,26,18,16,21.30
2017,06,26,18,17,21.20
2017,06,26,18,18,21.30
2017,06,26,18,19,21.30
2017,06,26,18,20,21.30
2017,06,26,18,21,21.30
2017,06,26,18,22,21.30
2017,06,26,18,23,21.30
2017,06,26,18,24,21.30
2017,06,26,18,25,21.30
2017,06,26,18,26,21.30
2017,06,26,18,27,21.30
2017,06,26,18,28,21.30
2017,06,26,18,29,21.30
2017,06,26,18,30,21.30
2017,06,26,18,31,21.30
2017,06,26,18,32,21.30
2017,06,26,18,33,21.30
2017,06,26,18,34,21.30
2017,06,26,18,35,21.20
2017,06,26,18,36,21.20
2017,06,26,18,37,21.20
2017,06,26,18,38,21.20
2017,06,26,18,39,21.20
2017,06,26,18,40,21.20
2017,06,26,18,41,21.20
2017,06,26,18,42,21.20
2017,06,26,18,43,21.20
2017,06,26,18,44,21.30
2017,06,26,18,45,21.30
2017,06,26,18,46,21.30
2017,06,26,18,47,21.30
2017,06,26,18,48,21.30
2017,06,26,18,49,21.30
2017,06,26,18,50,21.30
2017,06,26,18,51,21.20
2017,06,26,18,52,21.10
2017,06,26,18,53,21.10
2017,06,26,18,54,21.10
2017,06,26,18,55,21.10
2017,06,26,18,56,21.00
2017,06,26,18,57,21.00
2017,06,26,18,58,21.00
2017,06,26,18,59,21.00
2017,06,26,19,00,21.00
2017,06,26,19,01,20.90
2017,06,26,19,02,20.80
2017,06,26,19,03,20.80
2017,06,26,19,04,20.80
2017,06,26,19,05,20.80
2017,06,26,19,06,20.80
2017,06,26,19,07,20.80
2017,06,26,19,08,20.80
2017,06,26,19,09,20.50
2017,06,26,19,10,20.40
2017,06,26,19,11,20.40
2017,06,26,19,12,20.40
2017,06,26,19,13,20.40
2017,06,26,19,14,20.40
2017,06,26,19,15,20.40
2017,06,26,19,16,20.40
2017,06,26,19,17,20.40
2017,06,26,19,18,20.40
2017,06,26,19,19,20.40
